When you browse on this site, cookies collect data to enhance your experience and personalize the content and advertising you see.
Visit our Privacy Policy to learn more. By continuing to use the site, you agree to this use of cookies and data.
  • en France
  • Liste des pays
  • À 7 jours
  • Température de l'eau
  • Carte météo
  • Widgets météo
  • user-avatar
    Se connecter

    Météo par heure à La-Plata

    Ce jour, 4 Avril, Samedi

    Heure Température Précipitation Vent Pression Humidité
    00:00 +17°C° 0 mm 3 m/s 758 mmHg 77%
    01:00 +17°C° 0 mm 3 m/s 758 mmHg 79%
    02:00 +17°C° 0 mm 3 m/s 758 mmHg 80%
    03:00 +16°C° 0 mm 3 m/s 758 mmHg 81%
    04:00 +16°C° 0 mm 3 m/s 758 mmHg 82%
    05:00 +16°C° 0 mm 3 m/s 758 mmHg 83%
    06:00 +17°C° 0 mm 4 m/s 758 mmHg 77%
    07:00 +18°C° 0 mm 4 m/s 758 mmHg 72%
    08:00 +20°C° 0 mm 5 m/s 758 mmHg 67%
    09:00 +21°C° 0 mm 5 m/s 758 mmHg 58%
    10:00 +23°C° 0 mm 5 m/s 758 mmHg 50%
    11:00 +25°C° 0 mm 5 m/s 758 mmHg 41%
    12:00 +26°C° 0 mm 5 m/s 757 mmHg 38%
    13:00 +27°C° 0 mm 5 m/s 757 mmHg 35%
    14:00 +27°C° 0 mm 4 m/s 756 mmHg 32%
    15:00 +26°C° 0 mm 4 m/s 756 mmHg 35%
    16:00 +26°C° 0 mm 3 m/s 756 mmHg 39%
    17:00 +25°C° 0 mm 3 m/s 756 mmHg 42%
    18:00 +22°C° 0 mm 3 m/s 756 mmHg 44%
    19:00 +21°C° 0 mm 3 m/s 756 mmHg 46%
    20:00 +20°C° 0 mm 3 m/s 756 mmHg 49%
    21:00 +20°C° 0 mm 3 m/s 757 mmHg 52%
    22:00 +20°C° 0 mm 3 m/s 757 mmHg 54%
    23:00 +20°C° 0 mm 3 m/s 757 mmHg 57%

    Demain, 5 Avril, Dimanche

    Heure Température Précipitation Vent Pression Humidité
    00:00 +19°C° 0 mm 3 m/s 757 mmHg 59%
    01:00 +19°C° 0 mm 3 m/s 756 mmHg 60%
    02:00 +19°C° 0 mm 4 m/s 756 mmHg 62%
    03:00 +19°C° 0 mm 3 m/s 756 mmHg 65%
    04:00 +18°C° 0 mm 3 m/s 757 mmHg 67%
    05:00 +18°C° 0 mm 3 m/s 757 mmHg 70%
    06:00 +19°C° 0 mm 4 m/s 757 mmHg 66%
    07:00 +20°C° 0 mm 4 m/s 757 mmHg 63%
    08:00 +21°C° 0 mm 4 m/s 757 mmHg 60%
    09:00 +23°C° 0 mm 4 m/s 757 mmHg 53%
    10:00 +25°C° 0 mm 4 m/s 757 mmHg 46%
    11:00 +27°C° 0 mm 4 m/s 757 mmHg 40%
    12:00 +26°C° 0 mm 4 m/s 757 mmHg 41%
    13:00 +26°C° 0 mm 4 m/s 756 mmHg 43%
    14:00 +26°C° 0 mm 4 m/s 756 mmHg 44%
    15:00 +25°C° 0 mm 3 m/s 756 mmHg 46%
    16:00 +25°C° 0 mm 3 m/s 756 mmHg 47%
    17:00 +24°C° 0 mm 3 m/s 755 mmHg 49%
    18:00 +23°C° 0 mm 2 m/s 756 mmHg 53%
    19:00 +21°C° 0 mm 2 m/s 756 mmHg 57%
    20:00 +21°C° 0 mm 1 m/s 757 mmHg 61%
    21:00 +20°C° 0 mm 2 m/s 757 mmHg 61%
    22:00 +20°C° 0 mm 2 m/s 757 mmHg 61%
    23:00 +20°C° 0 mm 2 m/s 757 mmHg 61%

    Après-demain, 6 Avril, Lundi

    Heure Température Précipitation Vent Pression Humidité
    00:00 +20°C° 0 mm 3 m/s 757 mmHg 62%
    01:00 +19°C° 0 mm 4 m/s 758 mmHg 63%
    02:00 +17°C° 0 mm 5 m/s 758 mmHg 64%
    03:00 +16°C° 0 mm 6 m/s 758 mmHg 63%
    04:00 +16°C° 0 mm 6 m/s 759 mmHg 61%
    05:00 +15°C° 0 mm 7 m/s 760 mmHg 60%
    06:00 +15°C° 0 mm 8 m/s 761 mmHg 59%
    07:00 +15°C° 0 mm 8 m/s 762 mmHg 57%
    08:00 +15°C° 0 mm 8 m/s 763 mmHg 56%
    09:00 +16°C° 0 mm 8 m/s 763 mmHg 47%
    10:00 +18°C° 0 mm 8 m/s 764 mmHg 37%
    11:00 +20°C° 0 mm 8 m/s 764 mmHg 27%
    12:00 +20°C° 0 mm 7 m/s 764 mmHg 27%
    13:00 +20°C° 0 mm 7 m/s 764 mmHg 27%
    14:00 +21°C° 0 mm 6 m/s 764 mmHg 26%
    15:00 +20°C° 0 mm 6 m/s 764 mmHg 28%
    16:00 +19°C° 0 mm 5 m/s 764 mmHg 30%
    17:00 +19°C° 0 mm 5 m/s 764 mmHg 32%
    18:00 +16°C° 0 mm 5 m/s 765 mmHg 38%
    19:00 +14°C° 0 mm 5 m/s 765 mmHg 43%
    20:00 +13°C° 0 mm 4 m/s 766 mmHg 48%
    21:00 +12°C° 0 mm 4 m/s 766 mmHg 51%
    22:00 +11°C° 0 mm 4 m/s 766 mmHg 54%
    23:00 +11°C° 0 mm 4 m/s 767 mmHg 57%

    7 Avril, Mardi

    Heure Température Précipitation Vent Pression Humidité
    00:00 +10°C° 0 mm 4 m/s 767 mmHg 59%
    01:00 +10°C° 0 mm 3 m/s 767 mmHg 61%
    02:00 +9°C° 0 mm 3 m/s 767 mmHg 63%
    03:00 +9°C° 0 mm 3 m/s 767 mmHg 64%
    04:00 +9°C° 0 mm 3 m/s 767 mmHg 66%
    05:00 +8°C° 0 mm 2 m/s 767 mmHg 68%
    06:00 +9°C° 0 mm 3 m/s 767 mmHg 64%
    07:00 +11°C° 0 mm 3 m/s 768 mmHg 60%
    08:00 +12°C° 0 mm 3 m/s 768 mmHg 56%
    09:00 +15°C° 0 mm 2 m/s 768 mmHg 49%
    10:00 +17°C° 0 mm 2 m/s 768 mmHg 43%
    11:00 +18°C° 0 mm 2 m/s 768 mmHg 36%
    12:00 +19°C° 0 mm 2 m/s 767 mmHg 34%
    13:00 +20°C° 0 mm 2 m/s 767 mmHg 31%
    14:00 +21°C° 0 mm 2 m/s 767 mmHg 29%
    15:00 +20°C° 0 mm 3 m/s 767 mmHg 36%
    16:00 +19°C° 0 mm 3 m/s 766 mmHg 43%
    17:00 +17°C° 0 mm 4 m/s 766 mmHg 49%
    18:00 +16°C° 0 mm 3 m/s 766 mmHg 55%
    19:00 +14°C° 0 mm 3 m/s 766 mmHg 61%
    20:00 +12°C° 0 mm 3 m/s 767 mmHg 67%
    21:00 +12°C° 0 mm 3 m/s 767 mmHg 68%
    22:00 +12°C° 0 mm 3 m/s 767 mmHg 70%
    23:00 +12°C° 0 mm 2 m/s 767 mmHg 71%

    8 Avril, Mercredi

    Heure Température Précipitation Vent Pression Humidité
    00:00 +12°C° 0 mm 2 m/s 767 mmHg 74%
    01:00 +12°C° 0 mm 2 m/s 768 mmHg 76%
    02:00 +10°C° 0 mm 2 m/s 768 mmHg 78%
    03:00 +10°C° 0 mm 2 m/s 768 mmHg 79%
    04:00 +10°C° 0 mm 2 m/s 768 mmHg 81%
    05:00 +10°C° 0 mm 2 m/s 768 mmHg 82%
    06:00 +12°C° 0 mm 2 m/s 768 mmHg 76%
    07:00 +13°C° 0 mm 2 m/s 768 mmHg 70%
    08:00 +15°C° 0 mm 2 m/s 768 mmHg 64%
    09:00 +17°C° 0 mm 2 m/s 768 mmHg 55%
    10:00 +19°C° 0 mm 2 m/s 768 mmHg 47%
    11:00 +21°C° 0 mm 2 m/s 768 mmHg 38%
    12:00 +21°C° 0 mm 2 m/s 768 mmHg 36%
    13:00 +22°C° 0 mm 3 m/s 767 mmHg 34%
    14:00 +24°C° 0 mm 3 m/s 767 mmHg 31%
    15:00 +21°C° 0 mm 3 m/s 767 mmHg 38%
    16:00 +20°C° 0 mm 4 m/s 766 mmHg 45%
    17:00 +18°C° 0 mm 4 m/s 766 mmHg 52%
    18:00 +17°C° 0 mm 4 m/s 766 mmHg 58%
    19:00 +14°C° 0 mm 3 m/s 766 mmHg 65%
    20:00 +13°C° 0 mm 3 m/s 767 mmHg 71%
    21:00 +12°C° 0 mm 3 m/s 767 mmHg 72%
    22:00 +12°C° 0 mm 3 m/s 767 mmHg 73%
    23:00 +12°C° 0 mm 3 m/s 767 mmHg 74%

    9 Avril, Jeudi

    Heure Température Précipitation Vent Pression Humidité
    00:00 +12°C° 0 mm 3 m/s 767 mmHg 75%
    01:00 +13°C° 0 mm 2 m/s 767 mmHg 76%
    02:00 +12°C° 0 mm 2 m/s 767 mmHg 78%
    03:00 +12°C° 0 mm 2 m/s 767 mmHg 79%
    04:00 +12°C° 0 mm 2 m/s 767 mmHg 80%
    05:00 +12°C° 0 mm 2 m/s 767 mmHg 81%
    06:00 +13°C° 0 mm 2 m/s 767 mmHg 76%
    07:00 +15°C° 0 mm 2 m/s 767 mmHg 70%
    08:00 +16°C° 0 mm 2 m/s 768 mmHg 65%
    09:00 +18°C° 0 mm 2 m/s 767 mmHg 58%
    10:00 +19°C° 0 mm 3 m/s 767 mmHg 52%
    11:00 +21°C° 0 mm 3 m/s 767 mmHg 46%
    12:00 +21°C° 0 mm 3 m/s 767 mmHg 43%
    13:00 +22°C° 0 mm 3 m/s 766 mmHg 40%
    14:00 +22°C° 0 mm 3 m/s 766 mmHg 38%
    15:00 +21°C° 0 mm 3 m/s 765 mmHg 40%
    16:00 +20°C° 0 mm 3 m/s 765 mmHg 42%
    17:00 +19°C° 0 mm 3 m/s 765 mmHg 45%
    18:00 +18°C° 0 mm 4 m/s 765 mmHg 55%
    19:00 +15°C° 0 mm 4 m/s 765 mmHg 66%
    20:00 +14°C° 0 mm 4 m/s 765 mmHg 77%
    21:00 +14°C° 0 mm 4 m/s 766 mmHg 79%
    22:00 +14°C° 0 mm 4 m/s 766 mmHg 82%
    23:00 +15°C° 0 mm 4 m/s 766 mmHg 84%
    Voir plus